Location: Mentone
(34.5413°N, 85.5351°W)
Time: 13:03:58
(UTC-05:00)

AO-Echo - Pass Details

Date: 25 August 2017
Orbit: 693 x 811 km, 98.4° (Epoch: 22 September)

Event Time Altitude Azimuth Distance (km) Brightness Sun altitude
Rises 02:08:18 0° 10° (N) 3,111 ? -40.6°
Reaches altitude 10° 02:10:32 10° 9° (N) 2,201 ? -40.4°
Enters shadow 02:11:12 14° 8° (N) 1,939 ? -40.3°
